Location: Unspecified
(0.0000°N, 0.0000°E)
Time: 17:19:25
(UTC+00:00)

Tiros 1 despin weight - Pass Details

Date: 16 May 2026
Orbit: 555 x 591 km, 48.2° (Epoch: 1 June)

Event Time Altitude Azimuth Distance (km) Brightness Sun altitude
Rises 02:09:51 0° 235° (SW) 2,800 - -52.1°
Reaches altitude 10° 02:12:19 10° 244° (WSW) 1,893 - -51.6°
Maximum altitude 02:16:13 33° 309° (NW) 977 - -50.8°
Drops below altitude 10° 02:20:05 10° 14° (NNE) 1,866 - -49.9°
Sets 02:22:29 0° 24° (NNE) 2,754 - -49.4°
